DateTimeUTC,F1_A11,F1_S11,BsB_S11,BsG_S11,BsR_S11,BbsB_S11,BbsG_S11,BbsR_S11,BaB_A11,BaG_A11,BaR_A11,Tu_S11,T_S11,Uu_S11,U_S11,P_S11,T1_A11
2021-08-22T10:00:00Z,00000200,20000000,,,,,,,0000.24,0000.25,-000.05,19.2,25.7,09.5,06.4,0678.1,31.0
2021-08-22T10:01:00Z,00000200,20000000,,,,,,,-000.23,0000.00,0000.21,19.2,25.7,09.4,06.3,0678.1,31.0
2021-08-22T10:02:00Z,00000200,20000000,,,,,,,0000.13,-000.05,-000.17,19.2,25.8,09.4,06.3,0678.1,31.0
2021-08-22T10:03:00Z,00000200,60000000,,,,,,,0001.34,0001.54,0001.28,19.2,25.8,09.4,06.3,0678.1,31.0
2021-08-22T10:04:00Z,00000200,40000000,0008.95,0007.09,0005.13,0001.38,0000.71,0000.59,0001.90,0001.37,0001.05,19.3,25.6,09.4,06.4,0679.0,31.0
2021-08-22T10:05:00Z,00000200,00000000,0008.76,0006.86,0005.03,0000.84,0000.63,0001.30,0001.96,0002.16,0001.57,19.4,25.6,09.4,06.5,0679.1,31.0
2021-08-22T10:06:00Z,00000200,00000000,0008.77,0007.06,0005.29,0001.32,0000.70,0000.82,0001.98,0001.68,0001.58,19.4,25.6,09.5,06.5,0679.1,31.0
2021-08-22T10:07:00Z,00000200,00000000,0007.93,0007.02,0004.95,0000.63,0000.85,0000.88,0002.08,0001.96,0001.63,19.4,25.6,09.5,06.5,0679.1,31.0
2021-08-22T10:08:00Z,00000200,00000000,0008.51,0006.75,0004.92,0001.66,0001.00,0000.75,0001.63,0001.66,0001.18,19.4,25.6,09.5,06.6,0679.1,31.0
2021-08-22T10:09:00Z,00000200,00000000,0008.71,0007.06,0004.97,0001.44,0000.41,0000.94,0001.80,0001.68,0001.46,19.4,25.6,09.5,06.5,0679.0,31.0
2021-08-22T10:10:00Z,00000200,00000000,0009.17,0007.01,0004.81,0001.43,0000.66,0000.98,0002.21,0001.91,0001.42,19.4,25.6,09.6,06.6,0679.1,31.0
2021-08-22T10:11:00Z,00000200,00000000,0008.66,0006.63,0004.73,0000.96,0001.07,0000.51,0001.83,0001.36,0001.35,19.4,25.6,09.6,06.6,0679.1,31.0
2021-08-22T10:12:00Z,00000200,00000000,0009.13,0006.77,0005.16,0001.48,0000.83,0000.90,0002.29,0002.33,0001.51,19.4,25.6,09.4,06.5,0679.1,31.0
2021-08-22T10:13:00Z,00000200,00000000,0009.53,0007.01,0004.91,0001.26,0000.94,0000.81,0001.63,0001.51,0001.64,19.4,25.6,09.5,06.5,0679.1,31.0
2021-08-22T10:14:00Z,00000200,00000000,0007.76,0006.81,0005.02,0000.80,0000.55,0000.60,0002.24,0002.12,0001.55,19.4,25.6,09.5,06.6,0679.1,31.0
2021-08-22T10:15:00Z,00000200,00000000,0008.46,0007.07,0004.83,0001.46,0000.65,0000.71,0001.67,0001.77,0001.37,19.4,25.6,09.5,06.5,0679.1,31.0
2021-08-22T10:16:00Z,00000200,00000000,0009.32,0006.90,0004.97,0001.45,0000.72,0000.62,0002.19,0001.65,0001.50,19.5,25.6,09.6,06.6,0679.1,31.0
2021-08-22T10:17:00Z,00000200,00000000,0008.51,0006.97,0005.05,0000.65,0000.96,0000.86,0001.64,0001.73,0001.35,19.5,25.6,09.6,06.6,0679.1,31.0
2021-08-22T10:18:00Z,00000200,00000000,0009.08,0006.72,0005.24,0000.55,0000.82,0000.79,0001.82,0001.66,0001.32,19.5,25.6,09.5,06.5,0679.1,31.0
2021-08-22T10:19:00Z,00000200,00000000,0008.00,0006.57,0005.06,0000.46,0000.64,0000.62,0002.22,0002.28,0001.76,19.5,25.6,09.6,06.6,0679.1,31.0
2021-08-22T10:20:00Z,00000200,00000000,0008.39,0006.53,0004.95,0000.72,0000.80,0001.02,0001.72,0001.67,0001.08,19.5,25.6,09.7,06.7,0679.1,31.0
2021-08-22T10:21:00Z,00000200,00000000,0009.03,0007.01,0005.01,0000.84,0000.91,0000.70,0001.78,0001.46,0001.59,19.5,25.6,09.6,06.6,0679.1,31.0
2021-08-22T10:22:00Z,00000200,00000000,0008.20,0006.35,0004.72,0000.94,0000.89,0000.43,0002.30,0002.02,0001.69,19.5,25.6,09.7,06.7,0679.1,31.0
2021-08-22T10:23:00Z,00000200,00000000,0007.91,0005.81,0004.13,0001.10,0000.57,0000.61,0001.64,0001.59,0001.20,19.5,25.6,10.0,06.9,0679.1,31.0
2021-08-22T10:24:00Z,00000200,00000000,0007.92,0005.75,0004.41,0001.12,0000.71,0000.87,0001.89,0002.14,0001.32,19.5,25.6,10.1,07.0,0679.1,31.0
2021-08-22T10:25:00Z,00000200,00000000,0007.76,0006.30,0004.29,0000.54,0000.57,0000.73,0001.61,0001.27,0001.40,19.5,25.6,10.1,06.9,0679.1,31.0
2021-08-22T10:26:00Z,00000200,00000000,0006.08,0004.55,0003.19,0000.98,0000.40,0000.19,0000.81,0000.73,0000.40,19.5,25.6,09.6,06.6,0679.1,31.0
2021-08-22T10:27:00Z,00000200,00000000,0007.56,0005.72,0003.97,0000.65,0000.52,0000.53,0002.05,0002.03,0001.41,19.5,25.6,09.8,06.8,0679.1,31.0
2021-08-22T10:28:00Z,00000200,00000000,0006.48,0005.04,0003.73,0000.78,0000.47,0001.01,0000.92,0000.95,0001.41,19.5,25.6,09.6,06.7,0679.1,31.0
2021-08-22T10:29:00Z,00000200,00000000,0007.08,0006.14,0004.61,0000.96,0000.47,0000.37,0002.28,0001.72,0001.08,19.6,25.6,09.8,06.8,0679.1,31.0
2021-08-22T10:30:00Z,00000200,00000000,0008.56,0006.28,0004.65,0001.44,0000.71,0000.89,0001.74,0001.97,0001.69,19.6,25.6,09.8,06.8,0679.0,31.0
2021-08-22T10:31:00Z,00000200,00000000,0008.62,0005.91,0004.57,0000.70,0000.60,0000.95,0001.77,0001.51,0001.26,19.6,25.6,09.9,06.9,0679.0,31.0
2021-08-22T10:32:00Z,00000200,00000000,0007.56,0005.53,0004.16,0001.25,0000.41,0000.45,0001.36,0001.12,0001.00,19.6,25.7,09.9,06.8,0679.0,31.0
2021-08-22T10:33:00Z,00000200,00000000,0007.60,0005.76,0003.84,0000.55,0000.60,0000.31,0001.75,0001.69,0001.25,19.6,25.6,09.9,06.8,0679.0,31.0
2021-08-22T10:34:00Z,00000200,00000000,0008.20,0005.90,0004.47,0000.91,0000.47,0001.10,0001.67,0001.61,0001.23,19.6,25.7,09.9,06.8,0679.0,31.0
2021-08-22T10:35:00Z,00000200,00000000,0007.91,0006.26,0004.61,0000.84,0000.76,0001.16,0001.49,0001.56,0001.02,19.6,25.7,09.9,06.8,0679.1,31.0
2021-08-22T10:36:00Z,00000200,00000000,0007.58,0006.29,0004.51,0001.17,0000.87,0000.54,0002.05,0001.65,0001.53,19.6,25.7,09.9,06.8,0679.1,31.0
2021-08-22T10:37:00Z,00000200,00000000,0008.47,0006.66,0004.62,0000.83,0001.05,0000.38,0001.57,0001.73,0001.45,19.6,25.7,10.0,06.9,0679.0,31.0
2021-08-22T10:38:00Z,00000200,00000000,0008.88,0006.46,0004.71,0000.64,0000.62,0000.54,0002.30,0001.86,0001.34,19.6,25.7,09.9,06.9,0679.0,31.0
2021-08-22T10:39:00Z,00000200,00000000,0008.00,0007.02,0004.82,0001.77,0001.13,0000.68,0002.04,0001.89,0001.83,19.6,25.7,09.8,06.7,0679.0,31.0
2021-08-22T10:40:00Z,00000200,00000000,0008.82,0006.75,0004.96,0001.36,0000.86,0000.86,0002.54,0002.13,0001.48,19.6,25.7,09.8,06.8,0679.0,31.0
2021-08-22T10:41:00Z,00000200,00000000,0008.39,0006.57,0004.83,0000.32,0000.85,0001.18,0002.02,0002.27,0001.67,19.6,25.7,09.8,06.8,0679.0,31.0
2021-08-22T10:42:00Z,00000200,00000000,0007.54,0006.37,0004.55,0000.28,0000.60,0000.71,0002.73,0002.14,0001.96,19.6,25.7,09.8,06.8,0679.0,31.0
2021-08-22T10:43:00Z,00000200,00000000,0007.55,0006.51,0004.56,0000.85,0000.85,0000.60,0001.98,0001.99,0001.56,19.6,25.7,09.8,06.8,0679.0,31.0
2021-08-22T10:44:00Z,00000200,00000000,0008.24,0006.46,0004.68,0000.98,0000.58,0000.72,0002.14,0001.96,0001.43,19.6,25.7,09.9,06.8,0679.0,31.0
2021-08-22T10:45:00Z,00000200,00000000,0007.97,0005.88,0004.34,0001.22,0000.59,0000.59,0001.66,0001.53,0001.46,19.6,25.7,09.8,06.8,0679.0,31.0
2021-08-22T10:46:00Z,00000200,00000000,0007.54,0005.85,0004.28,0000.79,0000.52,0000.54,0002.50,0002.68,0001.87,19.6,25.7,09.9,06.8,0679.0,31.0
2021-08-22T10:47:00Z,00000200,00000000,0007.34,0005.27,0004.38,0000.66,0000.54,0000.51,0002.20,0001.92,0001.33,19.6,25.7,09.9,06.8,0679.0,31.0
2021-08-22T10:48:00Z,00000200,00000000,0006.63,0006.19,0003.87,0001.05,0000.89,0000.81,0001.91,0001.65,0001.77,19.6,25.7,09.8,06.8,0679.0,31.0
2021-08-22T10:49:00Z,00000200,00000000,0007.63,0005.32,0003.79,0000.94,0000.65,0000.78,0001.62,0001.35,0001.31,19.6,25.7,09.8,06.8,0679.0,31.0
2021-08-22T10:50:00Z,00000200,00000000,0007.43,0005.65,0003.99,0000.84,0000.93,0000.73,0002.34,0002.20,0001.38,19.7,25.7,09.7,06.7,0679.0,31.0
2021-08-22T10:51:00Z,00000200,00000000,0008.32,0006.27,0004.92,0001.12,0000.75,0000.86,0002.01,0002.06,0001.76,19.7,25.7,09.8,06.8,0679.0,31.0
2021-08-22T10:52:00Z,00000200,00000000,0007.81,0006.42,0004.71,0001.61,0000.74,0000.96,0002.04,0001.75,0001.22,19.7,25.7,09.8,06.8,0679.0,31.0
2021-08-22T10:53:00Z,00000200,00000000,0008.48,0006.81,0004.52,0001.28,0000.71,0000.75,0001.59,0001.75,0001.47,19.7,25.7,09.9,06.8,0679.0,31.0
2021-08-22T10:54:00Z,00000200,00000000,0007.08,0005.05,0003.70,0000.44,0000.34,0000.85,0001.53,0001.40,0001.07,19.7,25.7,10.0,06.9,0679.0,31.0
2021-08-22T10:55:00Z,00000200,00000000,0006.48,0005.38,0004.12,-000.05,0000.69,0000.77,0001.74,0001.57,0001.16,19.7,25.7,09.8,06.8,0679.0,31.0
2021-08-22T10:56:00Z,00000200,00000000,0008.54,0006.30,0004.08,0001.08,0000.36,0000.63,0001.52,0001.18,0000.96,19.7,25.7,09.8,06.8,0679.0,31.0
2021-08-22T10:57:00Z,00000200,40000000,,,,,,,0000.38,0000.41,0000.67,19.7,25.8,09.4,06.5,0679.0,31.0
2021-08-22T10:58:00Z,00000200,60000000,,,,,,,0000.25,0000.19,-000.03,19.5,25.8,09.9,06.7,0678.0,31.0
2021-08-22T10:59:00Z,00000200,20000000,,,,,,,-000.27,-000.17,0000.06,19.5,25.9,09.9,06.7,0678.0,31.0
